H1 CPF 2 NER 2020 11 3 9 308 01 glonass131 H2 1301901 9131 39155 2020 11 3 0 0 0 2020 11 6 23 45 0 900 1 1 0 0 0 1 H9 10 0 59156 0.00000 0 -6577716.115 -15297302.790 19331533.426 10 0 59156 900.00000 0 -6344232.063 -17548755.224 17391653.584 10 0 59156 1800.00000 0 -6294368.243 -19553041.893 15113992.418 10 0 59156 2700.00000 0 -6392850.028 -21257701.828 12542565.861 10 0 59156 3600.00000 0 -6595895.782 -22619963.693 9727174.190 10 0 59156 4500.00000 0 -6853260.232 -23608401.044 6722446.445 10 0 59156 5400.00000 0 -7110566.458 -24204130.533 3586783.514 10 0 59156 6300.00000 0 -7311827.823 -24401500.731 381219.975 10 0 59156 7200.00000 0 -7402052.151 -24208240.721 -2831772.723 10 0 59156 8100.00000 0 -7329816.113 -23645060.711 -5989517.462 10 0 59156 9000.00000 0 -7049698.459 -22744720.361 -9030371.552 10 0 59156 9900.00000 0 -6524466.273 -21550603.732 -11894949.519 10 0 59156 10800.00000 0 -5726918.800 -20114861.232 -14527302.668 10 0 59156 11700.00000 0 -4641308.009 -18496197.867 -16876030.340 10 0 59156 12600.00000 0 -3264273.445 -16757402.528 -18895299.247 10 0 59156 13500.00000 0 -1605249.966 -14962724.145 -20545749.525 10 0 59156 14400.00000 0 313670.142 -13175207.004 -21795268.873 10 0 59156 15300.00000 0 2458415.458 -11454098.904 -22619619.154 10 0 59156 16200.00000 0 4784125.703 -9852442.222 -23002903.366 10 0 59156 17100.00000 0 7236803.682 -8414949.492 -22937864.480 10 0 59156 18000.00000 0 9755358.877 -7176252.463 -22426011.256 10 0 59156 18900.00000 0 12273956.402 -6159596.985 -21477569.927 10 0 59156 19800.00000 0 14724572.386 -5376036.681 -20111264.121 10 0 59156 20700.00000 0 17039648.496 -4824156.915 -18353928.867 10 0 59156 21600.00000 0 19154734.711 -4490337.795 -16239967.724 10 0 59156 22500.00000 0 21011010.439 -4349542.223 -13810664.964 10 0 59156 23400.00000 0 22557579.600 -4366592.978 -11113367.499 10 0 59156 24300.00000 0 23753445.311 -4497882.455 -8200553.428 10 0 59156 25200.00000 0 24569083.573 -4693440.926 -5128806.067 10 0 59156 26100.00000 0 24987552.295 -4899274.627 -1957713.891 10 0 59156 27000.00000 0 25005091.663 -5059874.206 1251282.125 10 0 59156 27900.00000 0 24631192.944 -5120787.496 4436071.642 10 0 59156 28800.00000 0 23888134.859 -5031148.475 7535066.093 10 0 59156 29700.00000 0 22810008.476 -4746056.539 10488375.646 10 0 59156 30600.00000 0 21441272.388 -4228706.816 13238950.432 10 0 59156 31500.00000 0 19834898.940 -3452182.888 15733665.292 10 0 59156 32400.00000 0 18050188.586 -2400837.281 17924328.730 10 0 59156 33300.00000 0 16150342.664 -1071202.096 19768598.240 10 0 59156 34200.00000 0 14199894.398 527608.623 21230785.854 10 0 59156 35100.00000 0 12262103.375 2374022.620 22282539.781 10 0 59156 36000.00000 0 10396420.078 4434655.775 22903390.012 10 0 59156 36900.00000 0 8656124.241 6665456.406 23081147.897 10 0 59156 37800.00000 0 7086233.737 9013302.648 22812152.032 10 0 59156 38700.00000 0 5721769.962 11417989.558 22101355.114 10 0 59156 39600.00000 0 4586451.471 13814526.270 20962248.946 10 0 59156 40500.00000 0 3691870.379 16135650.479 19416627.373 10 0 59156 41400.00000 0 3037186.509 18314457.967 17494189.697 10 0 59156 42300.00000 0 2609353.156 20287039.115 15231990.017 10 0 59156 43200.00000 0 2383866.252 21995013.302 12673740.919 10 0 59156 44100.00000 0 2326006.769 23387855.190 9868982.951 10 0 59156 45000.00000 0 2392525.203 24424914.626 6872134.425 10 0 59156 45900.00000 0 2533697.717 25077043.993 3741438.927 10 0 59156 46800.00000 0 2695667.184 25327762.704 537830.572 10 0 59156 47700.00000 0 2822969.405 25173907.730 -2676260.536 10 0 59156 48600.00000 0 2861136.196 24625740.817 -5838138.434 10 0 59156 49500.00000 0 2759262.957 23706506.263 -8886081.571 10 0 59156 50400.00000 0 2472429.472 22451456.864 -11760567.026 10 0 59156 51300.00000 0 1963868.531 20906388.783 -14405452.746 10 0 59156 52200.00000 0 1206787.762 19125747.448 -16769092.677 10 0 59156 53100.00000 0 185765.034 17170385.300 -18805361.036 10 0 59156 54000.00000 0 -1102343.690 15105067.198 -20474564.333 10 0 59156 54900.00000 0 -2648023.958 12995830.033 -21744222.264 10 0 59156 55800.00000 0 -4429266.780 10907309.104 -22589701.764 10 0 59156 56700.00000 0 -6412270.390 8900144.745 -22994691.941 10 0 59156 57600.00000 0 -8552650.056 7028578.670 -22951511.175 10 0 59156 58500.00000 0 -10797104.527 5338340.826 -22461241.383 10 0 59156 59400.00000 0 -13085468.409 3864914.536 -21533688.117 10 0 59156 60300.00000 0 -15353063.688 2632250.980 -20187168.734 10 0 59156 61200.00000 0 -17533251.198 1651984.733 -18448134.314 10 0 59156 62100.00000 0 -19560074.944 923180.424 -16350634.214 10 0 59156 63000.00000 0 -21370888.746 432618.025 -13935635.059 10 0 59156 63900.00000 0 -22908855.777 155601.699 -11250208.704 10 0 59156 64800.00000 0 -24125217.537 57255.111 -8346605.961 10 0 59156 65700.00000 0 -24981238.785 94246.110 -5281234.814 10 0 59156 66600.00000 0 -25449748.785 216866.078 -2113563.528 10 0 59156 67500.00000 0 -25516216.438 371374.839 1095029.947 10 0 59156 68400.00000 0 -25179316.293 502511.568 4282440.147 10 0 59156 69300.00000 0 -24450963.618 556065.716 7387025.377 10 0 59156 70200.00000 0 -23355818.640 481400.044 10348785.897 10 0 59156 71100.00000 0 -21930281.702 233820.254 13110507.404 10 0 59156 72000.00000 0 -20221021.791 -223307.499 15618849.027 10 0 59156 72900.00000 0 -18283099.702 -916779.349 17825356.420 10 0 59156 73800.00000 0 -16177763.219 -1862190.751 19687382.068 10 0 59156 74700.00000 0 -13970004.863 -3063044.749 21168896.546 10 0 59156 75600.00000 0 -11725982.016 -4510369.366 22241176.524 10 0 59156 76500.00000 0 -9510404.671 -6182861.294 22883357.273 10 0 59156 77400.00000 0 -7383997.379 -8047551.756 23082839.594 10 0 59156 78300.00000 0 -5401138.955 -10060969.224 22835543.355 10 0 59156 79200.00000 0 -3607776.537 -12170753.475 22146002.216 10 0 59156 80100.00000 0 -2039699.791 -14317656.679 21027296.557 10 0 59156 81000.00000 0 -721246.661 -16437851.151 19500824.282 10 0 59156 81900.00000 0 335505.218 -18465450.154 17595911.884 10 0 59156 82800.00000 0 1131026.964 -20335138.492 15349271.089 10 0 59156 83700.00000 0 1678093.684 -21984804.235 12804309.365 10 0 59156 84600.00000 0 2001015.603 -23358061.823 10010305.558 10 0 59156 85500.00000 0 2134376.248 -24406560.225 7021465.091 10 0 59157 0.00000 0 2121330.070 -25091978.058 3895872.027 10 0 59157 900.00000 0 2011531.130 -25387619.574 694357.486 10 0 59157 1800.00000 0 1858780.410 -25279543.084 -2520692.189 10 0 59157 2700.00000 0 1718492.951 -24767170.228 -5686564.720 10 0 59157 3600.00000 0 1645093.176 -23863350.291 -8741462.269 10 0 59157 4500.00000 0 1689451.453 -22593873.866 -11625727.065 10 0 59157 5400.00000 0 1896472.962 -20996456.054 -14283026.278 10 0 59157 6300.00000 0 2302943.796 -19119231.594 -16661470.954 10 0 59157 7200.00000 0 2935728.063 -17018825.816 -18714645.182 10 0 59157 8100.00000 0 3810394.503 -14758083.595 -20402523.952 10 0 59157 9000.00000 0 4930332.404 -12403553.053 -21692260.748 10 0 59157 9900.00000 0 6286395.213 -10022831.218 -22558828.977 10 0 59157 10800.00000 0 7857087.349 -7681884.213 -22985504.808 10 0 59157 11700.00000 0 9609286.278 -5442455.140 -22964182.533 10 0 59157 12600.00000 0 11499468.876 -3359668.538 -22495517.284 10 0 59157 13500.00000 0 13475389.719 -1479931.176 -21588893.562 10 0 59157 14400.00000 0 15478139.901 160784.224 -20262221.689 10 0 59157 15300.00000 0 17444499.060 1538202.442 -18541567.647 10 0 59157 16200.00000 0 19309481.339 2640506.109 -16460625.073 10 0 59157 17100.00000 0 21008968.277 3468564.200 -14060041.046 10 0 59157 18000.00000 0 22482318.343 4035622.265 -11386610.094 10 0 59157 18900.00000 0 23674844.408 4366470.747 -8492353.114 10 0 59157 19800.00000 0 24540056.366 4496129.338 -5433499.823 10 0 59157 20700.00000 0 25041576.337 4468105.249 -2269395.112 10 0 59157 21600.00000 0 25154647.905 4332300.703 938649.391 10 0 59157 22500.00000 0 24867177.948 4142659.083 4128536.409 10 0 59157 23400.00000 0 24180269.132 3954649.422 7238574.330 10 0 59157 24300.00000 0 23108222.280 3822695.197 10208656.514 10 0 59157 25200.00000 0 21678009.530 3797655.108 12981406.958 10 0 59157 26100.00000 0 19928240.849 3924460.958 15503271.484 10 0 59157 27000.00000 0 17907666.937 4240010.935 17725534.941 10 0 59157 27900.00000 0 15673280.141 4771405.920 19605246.496 10 0 59157 28800.00000 0 13288091.203 5534602.225 21106036.603 10 0 59157 29700.00000 0 10818672.474 6533537.213 22198811.366 10 0 59157 30600.00000 0 8332567.519 7759765.042 22862311.956 10 0 59157 31500.00000 0 5895672.500 9192619.048 23083528.855 10 0 59157 32400.00000 0 3569695.840 10799896.025 22857963.048 10 0 59157 33300.00000 0 1409799.734 12539036.333 22189728.576 10 0 59157 34200.00000 0 -537479.908 14358753.451 21091493.400 10 0 59157 35100.00000 0 -2235949.471 16201047.863 19584258.064 10 0 59157 36000.00000 0 -3661038.450 18003523.967 17696974.460 10 0 59157 36900.00000 0 -4800591.268 19701915.385 15466009.823 10 0 59157 37800.00000 0 -5655136.266 21232714.617 12934464.115 10 0 59157 38700.00000 0 -6237619.563 22535797.638 10151351.898 10 0 59157 39600.00000 0 -6572613.795 23556933.091 7170662.983 10 0 59157 40500.00000 0 -6695034.105 24250069.690 4050318.959 10 0 59157 41400.00000 0 -6648414.985 24579303.806 851045.359 10 0 59157 42300.00000 0 -6482820.697 24520442.128 -2364818.204 10 0 59157 43200.00000 0 -6252478.356 24062091.024 -5534545.935 10 0 59157 44100.00000 0 -6013235.226 23206224.254 -8596266.371 10 0 59157 45000.00000 0 -5819949.840 21968202.966 -11490189.373 10 0 59157 45900.00000 0 -5723929.913 20376245.620 -14159793.591 10 0 59157 46800.00000 0 -5770528.131 18470369.268 -16552949.152 10 0 59157 47700.00000 0 -5997000.228 16300846.672 -18622951.711 10 0 59157 48600.00000 0 -6430718.268 13926244.631 -20329446.148 10 0 59157 49500.00000 0 -7087816.518 11411126.902 -21639220.855 10 0 59157 50400.00000 0 -7972328.365 8823519.403 -22526856.539 10 0 59157 51300.00000 0 -9075851.269 6232245.198 -22975216.952 10 0 59157 52200.00000 0 -10377753.885 3704241.800 -22975772.488 10 0 59157 53100.00000 0 -11845916.020 1301973.656 -22528751.296 10 0 59157 54000.00000 0 -13437969.393 -918952.178 -21643116.231 10 0 59157 54900.00000 0 -15102985.881 -2911868.375 -20336369.539 10 0 59157 55800.00000 0 -16783541.108 -4640742.201 -18634190.646 10 0 59157 56700.00000 0 -18418065.720 -6081414.356 -16569915.609 10 0 59157 57600.00000 0 -19943384.907 -7222332.854 -14183869.774 10 0 59157 58500.00000 0 -21297339.225 -8064754.329 -11522567.903 10 0 59157 59400.00000 0 -22421376.863 -8622407.734 -8637798.367 10 0 59157 60300.00000 0 -23263009.185 -8920637.773 -5585609.914 10 0 59157 61200.00000 0 -23778027.469 -8995066.937 -2425221.304 10 0 59157 62100.00000 0 -23932389.228 -8889834.812 782124.914 10 0 59157 63000.00000 0 -23703696.469 -8655490.498 3974342.400 10 0 59157 63900.00000 0 -23082205.480 -8346627.874 7089692.334 10 0 59157 64800.00000 0 -22071327.203 -8019363.606 10067963.821 10 0 59157 65700.00000 0 -20687598.286 -7728763.764 12851621.694 10 0 59157 66600.00000 0 -18960124.604 -7526326.536 15386900.825 10 0 59157 67500.00000 0 -16929520.442 -7457625.836 17624827.398 10 0 59157 68400.00000 0 -14646386.910 -7560213.679 19522149.073 10 0 59157 69300.00000 0 -12169391.699 -7861868.408 21042157.626 10 0 59157 70200.00000 0 -9563028.216 -8379261.706 22155389.628 10 0 59157 71100.00000 0 -6895144.926 -9117100.217 22840192.734 10 0 59157 72000.00000 0 -4234345.116 -10067778.437 23083147.272 10 0 59157 72900.00000 0 -1647362.474 -11211558.724 22879335.083 10 0 59157 73800.00000 0 803480.891 -12517273.003 22232449.978 10 0 59157 74700.00000 0 3062630.208 -13943519.244 21154746.542 10 0 59157 75600.00000 0 5083371.099 -15440305.478 19666826.725 10 0 59157 76500.00000 0 6829534.317 -16951075.333 17797266.307 10 0 59157 77400.00000 0 8276761.157 -18415032.656 15582086.274 10 0 59157 78300.00000 0 9413276.195 -19769669.756 13064077.071 10 0 59157 79200.00000 0 10240134.122 -20953394.271 10291986.735 10 0 59157 80100.00000 0 10770929.156 -21908144.530 7319587.018 10 0 59157 81000.00000 0 11030978.196 -22581882.751 4204634.479 10 0 59157 81900.00000 0 11056011.302 -22930859.574 1007746.211 10 0 59157 82800.00000 0 10890424.400 -22921552.319 -2208787.621 10 0 59157 83700.00000 0 10585168.313 -22532192.653 -5382230.458 10 0 59157 84600.00000 0 10195364.391 -21753816.541 -8450639.915 10 0 59157 85500.00000 0 9777749.214 -20590789.663 -11354096.078 10 0 59158 0.00000 0 9388058.656 -19060784.132 -14035891.462 10 0 59158 900.00000 0 9078464.809 -17194205.631 -16443657.642 10 0 59158 1800.00000 0 8895175.756 -15033095.389 -18530403.825 10 0 59158 2700.00000 0 8876303.830 -12629551.598 -20255446.503 10 0 59158 3600.00000 0 9050092.475 -10043738.496 -21585210.367 10 0 59158 4500.00000 0 9433579.325 -7341566.815 -22493884.418 10 0 59158 5400.00000 0 10031752.011 -4592144.234 -22963920.559 10 0 59158 6300.00000 0 10837232.533 -1865103.407 -22986365.425 10 0 59158 7200.00000 0 11830502.858 772079.856 -22561019.914 10 0 59158 8100.00000 0 12980661.216 3256666.074 -21696424.573 10 0 59158 9000.00000 0 14246675.920 5533021.991 -20409672.568 10 0 59158 9900.00000 0 15579082.486 7554683.007 -18726055.429 10 0 59158 10800.00000 0 16922051.277 9286023.950 -16678549.991 10 0 59158 11700.00000 0 18215737.619 10703470.857 -14307157.921 10 0 59158 12600.00000 0 19398814.752 11796206.005 -11658111.978 10 0 59158 13500.00000 0 20411082.830 12566339.960 -8782965.488 10 0 59158 14400.00000 0 21196044.452 13028546.718 -5737583.466 10 0 59158 15300.00000 0 21703339.067 13209180.325 -2581055.590 10 0 59158 16200.00000 0 21890934.963 13144912.796 625447.726 10 0 59158 17100.00000 0 21726988.037 12880952.720 3819854.145 10 0 59158 18000.00000 0 21191290.636 12468920.893 6940380.621 10 0 59158 18900.00000 0 20276251.018 11964473.087 9926714.814 10 0 59158 19800.00000 0 18987363.363 11424769.943 12721164.971 10 0 59158 20700.00000 0 17343149.311 10905899.822 15269757.320 10 0 59158 21600.00000 0 15374573.510 10460361.919 17523261.366 10 0 59158 22500.00000 0 13123956.954 10134714.092 19438124.959 10 0 59158 23400.00000 0 10643432.248 9967482.894 20977302.567 10 0 59158 24300.00000 0 7993003.242 9987422.427 22110962.279 10 0 59158 25200.00000 0 5238287.386 10212194.414 22817058.945 10 0 59158 26100.00000 0 2448032.013 10647524.780 23081763.066 10 0 59158 27000.00000 0 -308495.078 11286872.743 22899737.275 10 0 59158 27900.00000 0 -2964135.097 12111627.656 22274254.632 10 0 59158 28800.00000 0 -5456380.797 13091827.312 21217155.382 10 0 59158 29700.00000 0 -7729728.240 14187370.011 19748641.442 10 0 59158 30600.00000 0 -9737741.134 15349672.202 17896910.618 10 0 59158 31500.00000 0 -11444742.058 16523704.593 15697635.402 10 0 59158 32400.00000 0 -12827059.870 17650323.394 13193294.189 10 0 59158 33300.00000 0 -13873780.344 18668800.145 10432365.748 10 0 59158 34200.00000 0 -14586967.437 19519444.343 7468400.914 10 0 59158 35100.00000 0 -14981344.730 20146208.136 4358988.324 10 0 59158 36000.00000 0 -15083449.337 20499162.100 1164633.744 10 0 59158 36900.00000 0 -14930293.229 20536735.723 -2052424.930 10 0 59158 37800.00000 0 -14567588.368 20227625.498 -5229443.108 10 0 59158 38700.00000 0 -14047611.127 19552287.272 -8304410.081 10 0 59158 39600.00000 0 -13426797.531 18503947.074 -11217278.585 10 0 59158 40500.00000 0 -12763172.801 17089085.265 -13911157.320 10 0 59158 41400.00000 0 -12113726.162 15327371.574 -16333441.062 10 0 59158 42300.00000 0 -11531844.333 13251052.475 -18436854.306 10 0 59158 43200.00000 0 -11064914.511 10903816.057 -20180386.531 10 0 59158 44100.00000 0 -10752200.122 8339182.057 -21530099.755 10 0 59158 45000.00000 0 -10623080.516 5618485.277 -22459791.992 10 0 59158 45900.00000 0 -10695729.692 2808537.722 -22951503.693 10 0 59158 46800.00000 0 -10976289.882 -20931.737 -22995857.799 10 0 59158 47700.00000 0 -11458574.246 -2799952.252 -22592227.675 10 0 59158 48600.00000 0 -12124310.061 -5460988.258 -21748730.904 10 0 59158 49500.00000 0 -12943910.636 -7941507.493 -20482050.543 10 0 59158 50400.00000 0 -13877741.665 -10186333.205 -18817088.819 10 0 59158 51300.00000 0 -14877826.942 -12149683.854 -16786461.600 10 0 59158 52200.00000 0 -15889920.066 -13796817.215 -14429844.829 10 0 59158 53100.00000 0 -16855853.612 -15105212.701 -11793186.984 10 0 59158 54000.00000 0 -17716066.096 -16065245.525 -8927803.905 10 0 59158 54900.00000 0 -18412200.005 -16680327.620 -5889374.331 10 0 59158 55800.00000 0 -18889661.720 -16966512.511 -2736856.263 10 0 59158 56700.00000 0 -19100036.230 -16951583.600 468654.656 10 0 59158 57600.00000 0 -19003256.017 -16673666.546 3665102.732 10 0 59158 58500.00000 0 -18569434.093 -16179425.791 6790663.337 10 0 59158 59400.00000 0 -17780285.397 -15521922.131 9784925.309 10 0 59158 60300.00000 0 -16630077.884 -14758221.698 12590042.859 10 0 59158 61200.00000 0 -15126074.180 -13946856.527 15151836.007 10 0 59158 62100.00000 0 -13288445.462 -13145242.432 17420819.830 10 0 59158 63000.00000 0 -11149660.722 -12407161.344 19353144.346 10 0 59158 63900.00000 0 -8753375.850 -11780412.243 20911428.368 10 0 59158 64800.00000 0 -6152867.063 -11304727.789 22065472.754 10 0 59158 65700.00000 0 -3409071.534 -11010042.822 22792840.389 10 0 59158 66600.00000 0 -588314.038 -10915186.606 23079292.354 10 0 59158 67500.00000 0 2240188.911 -11027053.588 22919072.061 10 0 59158 68400.00000 0 5006946.706 -11340288.018 22315031.419 10 0 59158 69300.00000 0 7644827.934 -11837496.990 21278595.557 10 0 59158 70200.00000 0 10091602.093 -12489984.818 19829565.265 10 0 59158 71100.00000 0 12292285.566 -13258980.153 17995758.956 10 0 59158 72000.00000 0 14201194.909 -14097306.626 15812498.905 10 0 59158 72900.00000 0 15783621.869 -14951428.931 13321949.424 10 0 59158 73800.00000 0 17017059.616 -15763789.901 10572317.678 10 0 59158 74700.00000 0 17891927.663 -16475341.108 7616930.949 10 0 59158 75600.00000 0 18411763.829 -17028160.393 4513207.060 10 0 59158 76500.00000 0 18592873.813 -17368045.087 1321537.374 10 0 59158 77400.00000 0 18463452.051 -17446969.775 -1895895.657 10 0 59158 78300.00000 0 18062210.367 -17225302.464 -5076342.587 10 0 59158 79200.00000 0 17436572.318 -16673682.724 -8157727.448 10 0 59158 80100.00000 0 16640510.232 -15774479.541 -11079878.510 10 0 59158 81000.00000 0 15732117.744 -14522764.524 -13785723.227 10 0 59158 81900.00000 0 14771022.277 -12926756.919 -16222422.003 10 0 59158 82800.00000 0 13815749.047 -11007719.905 -18342416.578 10 0 59158 83700.00000 0 12921150.139 -8799311.321 -20104371.050 10 0 59158 84600.00000 0 12136009.268 -6346415.637 -21473986.023 10 0 59158 85500.00000 0 11500924.825 -3703506.425 -22424669.364 10 0 59159 0.00000 0 11046561.425 -932608.537 -22938050.499 10 0 59159 900.00000 0 10792344.141 1899054.038 -23004328.674 10 0 59159 1800.00000 0 10745648.987 4721625.008 -22622449.310 10 0 59159 2700.00000 0 10901524.240 7465289.722 -21800106.232 10 0 59159 3600.00000 0 11242950.793 10062944.510 -20553571.236 10 0 59159 4500.00000 0 11741629.840 12452749.894 -18907355.788 10 0 59159 5400.00000 0 12359262.004 14580462.344 -16893713.019 10 0 59159 6300.00000 0 13049262.141 16401448.780 -14551991.103 10 0 59159 7200.00000 0 13758835.763 17882301.736 -11927851.920 10 0 59159 8100.00000 0 14431328.248 19001990.360 -9072371.253 10 0 59159 9000.00000 0 15008746.989 19752502.021 -6041038.764 10 0 59159 9900.00000 0 15434349.876 20138950.569 -2892677.803 10 0 59159 10800.00000 0 15655191.279 20179149.679 311693.829 10 0 59159 11700.00000 0 15624518.915 19902671.650 3510040.170 10 0 59159 12600.00000 0 15303921.675 19349433.213 6640498.022 10 0 59159 13500.00000 0 14665139.122 18567869.070 9642560.250 10 0 59159 14400.00000 0 13691457.635 17612770.534 12458229.659 10 0 59159 15300.00000 0 12378635.417 16542879.909 15033122.403 10 0 59159 16200.00000 0 10735317.894 15418340.868 17317501.188 10 0 59159 17100.00000 0 8782925.906 14298110.518 19267219.928 10 0 59159 18000.00000 0 6555020.488 13237440.100 20844563.197 10 0 59159 18900.00000 0 4096169.182 12285528.186 22018965.699 10 0 59159 19800.00000 0 1460358.861 11483443.093 22767599.065 10 0 59159 20700.00000 0 -1290981.471 10862400.298 23075815.282 10 0 59159 21600.00000 0 -4091268.773 10442466.242 22937438.432 10 0 59159 22500.00000 0 -6871272.978 10231742.734 22354898.700 10 0 59159 23400.00000 0 -9561741.584 10226066.725 21339205.046 10 0 59159 24300.00000 0 -12096035.313 10409239.263 19909755.573 10 0 59159 25200.00000 0 -14412667.150 10753775.728 18093987.278 10 0 59159 26100.00000 0 -16457640.101 11222147.825 15926869.773 10 0 59159 27000.00000 0 -18186486.643 11768467.098 13450250.510 10 0 59159 27900.00000 0 -19565924.289 12340540.812 10712062.039 10 0 59159 28800.00000 0 -20575056.956 12882214.729 7765404.965 10 0 59159 29700.00000 0 -21206070.404 13335904.368 4667523.158 10 0 59159 30600.00000 0 -21464390.972 13645207.445 1478690.495 10 0 59159 31500.00000 0 -21368299.487 13757485.810 -1738968.976 10 0 59159 32400.00000 0 -20948015.563 13626305.666 -4922703.752 10 0 59159 33300.00000 0 -20244290.421 13213630.265 -8010375.232 10 0 59159 34200.00000 0 -19306567.793 12491669.418 -10941689.628 10 0 59159 35100.00000 0 -18190791.476 11444304.713 -13659395.333 10 0 59159 36000.00000 0 -16956953.593 10068027.473 -16110420.273 10 0 59159 36900.00000 0 -15666488.985 8372347.673 -18246925.013 10 0 59159 37800.00000 0 -14379627.815 6379654.936 -20027249.479 10 0 59159 38700.00000 0 -13152820.024 4124536.457 -21416733.692 10 0 59159 39600.00000 0 -12036341.894 1652580.311 -22388395.825 10 0 59159 40500.00000 0 -11072186.637 -981285.444 -22923454.342 10 0 59159 41400.00000 0 -10292328.204 -3714847.672 -23011684.493 10 0 59159 42300.00000 0 -9717431.027 -6480970.202 -22651603.096 10 0 59159 43200.00000 0 -9356058.840 -9210163.565 -21850479.240 10 0 59159 44100.00000 0 -9204414.129 -11833254.639 -20624172.163 10 0 59159 45000.00000 0 -9246616.954 -14284044.570 -18996800.974 10 0 59159 45900.00000 0 -9455508.962 -16501844.581 -17000254.224 10 0 59159 46800.00000 0 -9793946.229 -18433784.849 -14673550.272 10 0 59159 47700.00000 0 -10216524.212 -20036801.660 -12062062.210 10 0 59159 48600.00000 0 -10671660.170 -21279221.938 -9216623.487 10 0 59159 49500.00000 0 -11103943.868 -22141881.497 -6192532.381 10 0 59159 50400.00000 0 -11456656.574 -22618732.856 -3048475.271 10 0 59159 51300.00000 0 -11674351.889 -22716919.949 154610.194 10 0 59159 52200.00000 0 -11705389.820 -22456319.144 3354710.091 10 0 59159 53100.00000 0 -11504318.032 -21868567.929 6489924.958 10 0 59159 54000.00000 0 -11034000.872 -20995623.613 9499653.990 10 0 59159 54900.00000 0 -10267407.633 -19887913.391 12325750.877 10 0 59159 55800.00000 0 -9188985.764 -18602153.579 14913630.150 10 0 59159 56700.00000 0 -7795561.938 -17198928.928 17213304.263 10 0 59159 57600.00000 0 -6096733.228 -15740132.318 19180332.988 10 0 59159 58500.00000 0 -4114731.470 -14286370.523 20776668.359 10 0 59159 59400.00000 0 -1883765.182 -12894442.763 21971380.331 10 0 59159 60300.00000 0 551135.523 -11614995.649 22741250.332 10 0 59159 61200.00000 0 3135725.369 -10490450.947 23071221.928 10 0 59159 62100.00000 0 5808537.855 -9553291.520 22954700.170 10 0 59159 63000.00000 0 8503186.956 -8824776.401 22393693.433 10 0 59159 63900.00000 0 11150883.917 -8314138.728 21398794.057 10 0 59159 64800.00000 0 13683067.342 -8018300.672 19988996.658 10 0 59159 65700.00000 0 16034039.383 -7922118.441 18191355.677 10 0 59159 66600.00000 0 18143499.725 -7999148.674 16040486.581 10 0 59159 67500.00000 0 19958872.421 -8212905.687 13577918.139 10 0 59159 68400.00000 0 21437328.307 -8518558.315 10851306.112 10 0 59159 69300.00000 0 22547417.441 -8864996.107 7913521.907 10 0 59159 70200.00000 0 23270241.823 -9197178.378 4821632.594 10 0 59159 71100.00000 0 23600117.410 -9458666.766 1635791.468 10 0 59159 72000.00000 0 23544695.812 -9594233.380 -1581939.116 10 0 59159 72900.00000 0 23124539.089 -9552432.429 -4768808.937 10 0 59159 73800.00000 0 22372164.501 -9288024.194 -7862620.052 10 0 59159 74700.00000 0 21330599.124 -8764145.949 -10802959.725 10 0 59159 75600.00000 0 20051505.650 -7954135.003 -13532400.119 10 0 59159 76500.00000 0 18592959.422 -6842923.902 -15997639.187 10 0 59159 77400.00000 0 17016972.018 -5427946.320 -18150558.452 10 0 59159 78300.00000 0 15386867.660 -3719513.408 -19949175.427 10 0 59159 79200.00000 0 13764624.904 -1740643.351 -21358470.928 10 0 59159 80100.00000 0 12208297.262 473649.351 -22351074.421 10 0 59159 81000.00000 0 10769622.557 2877575.109 -22907794.008 10 0 59159 81900.00000 0 9491922.103 5416249.414 -23017981.158 10 0 59159 82800.00000 0 8408377.896 8027760.757 -22679723.909 10 0 59159 83700.00000 0 7540759.240 10645539.045 -21899866.054 10 0 59159 84600.00000 0 6898650.607 13200924.814 -20693853.338 10 0 59159 85500.00000 0 6479210.956 15625831.441 -19085411.231 99